Probability
23 32 26 16 10 3 0 0 0 0 0 0 0 0 0 0 0 0 0 0 0 0 0 0 0 0 0 0 0 0 0 0 0 0 0 0 0 0 0 0 0 0 0 0
13 13 10 3 0 0 0 0 0 0 0 0 0 0 0 0 0 0 0 0 0 0 0 0 0 0 0 0 0 0 0 0 0 0 0 0 0 0 0 0 0 0 0 0
3 3 6 0 0 0 0 0 0 0 0 0 0 0 0 0 0 0 0 0 0 0 0 0 0 0 0 0 0 0 0 0 0 0 0 0 0 0 0 0 0 0 0 0
0 0 0 0 0 0 0 0 0 0 0 0 0 0 0 0 0 0 0 0 0 0 0 0 0 0 0 0 0 0 0 0 0 0 0 0 0 0 0 0 0 0 0 0
0 0 0 0 0 0 0 0 0 0 0 0 0 0 0 0 0 0 0 0 0 0 0 0 0 0 0 0 0 0 0 0 0 0 0 0 0 0 0 0 0 0 0 0
0 0 0 0 0 0 0 0 0 0 0 0 0 0 0 0 0 0 0 0 0 0 0 0 0 3 0 0 0 0 0 0 0 0 0 0 0 0 0 0 0 0 0 0
0 0 0 0 0 0 0 0 0 0 0 0 0 0 0 0 0 0 0 0 0 0 0 0 6 3 0 0 0 0 0 0 0 0 0 0 0 0 0 0 0 0 0 0
0 0 0 0 0 0 0 0 0 0 0 0 0 0 0 0 0 0 0 0 0 0 0 0 6 3 0 0 0 0 0 0 0 0 0 0 0 0 0 0 0 0 0 0
0 0 0 0 0 0 0 0 0 0 0 0 0 0 0 0 0 0 0 0 0 0 0 0 3 3 0 0 0 0 0 0 0 0 0 0 0 0 0 0 0 0 0 0
0 0 0 0 0 0 0 0 0 0 0 0 0 0 0 0 0 0 0 0 0 0 0 0 0 3 0 0 0 0 0 0 0 0 0 0 0 0 0 0 0 0 0 0
0 0 0 0 0 0 0 0 0 0 0 0 0 0 0 0 0 0 0 0 0 0 0 0 0 0 0 0 0 0 0 0 0 0 0 0 0 0 0 0 0 0 0 0
0 0 0 0 0 0 0 0 0 0 0 0 0 0 0 0 0 0 0 0 0 0 0 0 0 0 0 0 0 0 0 0 0 0 0 0 0 0 0 0 0 0 0 0
0 0 0 0 0 0 0 0 0 0 0 0 0 0 0 0 0 0 0 0 0 0 0 0 0 0 0 0 0 0 0 0 0 0 0 0 0 0 0 0 0 0 0 0
0 0 0 0 0 0 0 0 0 0 0 0 0 0 0 0 0 0 0 0 0 0 0 0 0 0 0 0 0 0 0 0 0 0 0 0 0 0 0 0 0 0 0 0
0 0 0 0 0 0 0 0 0 0 0 0 0 0 0 0 0 0 0 0 0 0 0 0 0 0 0 0 0 0 0 0 0 0 0 0 0 0 0 0 0 0 0 0
0 0 0 0 0 0 0 0 0 0 0 0 0 0 0 0 0 0 0 0 0 0 0 0 0 0 0 0 0 0 0 0 0 0 0 0 0 0 0 0 0 0 0 0
0 0 0 0 0 0 0 0 0 0 0 0 0 0 0 0 0 0 0 0 0 0 0 0 0 0 0 0 0 0 0 0 0 0 0 0 0 0 0 0 0 0 0 0
0 0 0 0 0 0 0 0 0 0 0 0 0 0 0 0 0 0 0 0 0 0 0 0 0 0 0 0 0 0 0 0 0 0 0 0 0 0 0 0 0 0 0 0
0 0 0 0 0 0 0 0 0 0 0 0 0 0 0 0 0 0 0 0 0 0 0 0 0 0 0 0 0 0 0 0 0 0 0 0 0 0 0 0 0 0 0 0
0 0 0 0 0 0 0 0 0 0 0 0 0 0 0 0 0 0 0 0 0 0 0 0 0 0 0 0 0 0 0 0 0 0 0 0 0 0 0 0 0 0 0 0
0 0 0 0 0 0 0 0 0 0 0 0 0 0 0 0 0 0 0 0 0 0 0 0 0 0 0 0 0 0 0 0 0 0 0 0 0 0 0 0 0 0 0 0
0 0 0 0 0 0 0 0 0 0 0 0 0 0 0 0 0 0 0 0 0 0 0 0 0 0 0 0 0 0 0 0 0 0 0 0 0 0 0 0 0 0 0 0
0 0 0 0 0 0 0 0 0 0 0 0 0 0 0 0 0 0 0 0 0 0 0 0 0 0 0 0 0 0 0 0 0 0 0 0 0 0 0 0 0 0 0 0
0 0 0 0 0 0 0 0 0 0 0 0 0 0 0 0 0 0 0 0 0 0 0 0 0 0 0 0 0 0 0 0 0 0 0 0 0 0 0 0 0 0 0 0
0 0 0 0 0 0 0 0 0 0 0 0 0 0 0 0 0 0 0 0 0 0 0 0 0 0 0 0 0 0 0 0 0 0 0 0 0 0 0 0 0 0 0 0
0 0 0 0 0 0 0 0 0 0 0 0 0 0 0 0 0 0 0 0 0 0 0 0 0 0 0 0 0 0 0 0 0 0 0 0 0 0 0 0 0 0 0 0
Height
5813 5820 5825 5829 5832 5836 5839 5842 5843 5845 5845 5847 5848 5849 5850 5849 5850 5849 5849 5848 5848 5848 5848 5848 5848 5848 5848 5847 5847 5846 5845 5843 5841 5839 5836 5833 5829 5825 5821 5816 5812 5807 5803 5798
5815 5820 5825 5828 5832 5835 5838 5841 5842 5843 5845 5846 5847 5848 5848 5848 5848 5848 5847 5847 5846 5846 5846 5846 5846 5846 5846 5846 5846 5845 5844 5842 5840 5837 5835 5831 5828 5824 5820 5816 5811 5807 5802 5798
5817 5822 5825 5829 5832 5835 5838 5840 5841 5843 5844 5845 5846 5847 5847 5846 5846 5846 5846 5845 5845 5844 5844 5844 5845 5845 5845 5845 5844 5843 5842 5841 5839 5836 5834 5830 5827 5823 5819 5815 5811 5807 5802 5798
5817 5822 5826 5829 5832 5834 5836 5839 5841 5843 5844 5844 5845 5846 5846 5845 5845 5845 5844 5844 5843 5843 5842 5842 5843 5843 5843 5843 5843 5842 5841 5840 5838 5835 5833 5830 5826 5823 5819 5815 5811 5807 5802 5798
5819 5823 5827 5830 5832 5835 5837 5839 5841 5842 5843 5844 5844 5845 5845 5843 5843 5842 5842 5841 5841 5841 5840 5841 5841 5841 5842 5842 5841 5841 5840 5838 5836 5834 5831 5829 5825 5822 5818 5814 5811 5807 5803 5799
5821 5825 5828 5830 5833 5835 5837 5840 5841 5842 5843 5844 5844 5844 5844 5842 5840 5840 5839 5839 5839 5839 5839 5838 5839 5839 5840 5840 5839 5839 5838 5837 5835 5833 5830 5828 5825 5821 5818 5814 5810 5807 5803 5799
5825 5827 5829 5832 5833 5836 5838 5840 5841 5841 5842 5842 5843 5842 5842 5840 5839 5838 5837 5837 5836 5836 5836 5836 5837 5837 5838 5838 5838 5837 5836 5835 5833 5831 5829 5827 5824 5821 5817 5814 5810 5807 5803 5799
5828 5830 5831 5833 5834 5835 5837 5839 5840 5840 5840 5841 5841 5841 5840 5837 5836 5836 5835 5835 5834 5834 5834 5834 5834 5835 5835 5836 5836 5835 5834 5833 5832 5830 5828 5826 5823 5820 5817 5813 5810 5806 5803 5799
5830 5831 5832 5833 5834 5835 5836 5837 5838 5839 5839 5840 5841 5841 5837 5834 5833 5833 5832 5832 5831 5831 5831 5831 5832 5832 5833 5833 5833 5833 5833 5832 5830 5829 5827 5824 5822 5819 5816 5813 5810 5806 5803 5799
5829 5831 5832 5833 5834 5835 5836 5836 5837 5837 5837 5837 5838 5838 5835 5831 5830 5830 5829 5829 5828 5828 5828 5828 5829 5829 5830 5830 5831 5831 5830 5830 5828 5827 5825 5823 5821 5818 5815 5812 5809 5806 5803 5799
5829 5831 5831 5832 5833 5833 5834 5834 5834 5834 5834 5834 5833 5835 5832 5829 5828 5827 5826 5825 5824 5825 5825 5825 5826 5826 5827 5827 5828 5828 5828 5827 5826 5825 5823 5822 5820 5817 5815 5812 5809 5806 5802 5799
5829 5830 5830 5831 5831 5831 5831 5832 5831 5831 5831 5830 5829 5832 5828 5826 5823 5822 5822 5821 5821 5821 5821 5821 5822 5822 5823 5824 5825 5825 5825 5824 5824 5823 5821 5820 5818 5816 5813 5811 5808 5805 5802 5799
5828 5829 5830 5830 5831 5829 5828 5828 5828 5827 5827 5826 5826 5828 5825 5822 5820 5818 5817 5817 5817 5817 5817 5817 5818 5818 5819 5820 5821 5821 5821 5821 5821 5820 5819 5818 5816 5814 5812 5810 5807 5804 5801 5798
5827 5827 5828 5828 5827 5826 5825 5825 5824 5823 5822 5822 5821 5821 5820 5818 5816 5815 5814 5813 5812 5812 5812 5812 5813 5814 5815 5815 5816 5817 5818 5818 5818 5817 5816 5815 5814 5812 5810 5808 5806 5803 5800 5798
5824 5825 5824 5824 5823 5823 5822 5821 5820 5819 5818 5817 5817 5816 5815 5813 5811 5810 5809 5808 5807 5807 5807 5808 5808 5809 5810 5811 5812 5813 5813 5814 5814 5814 5813 5812 5811 5810 5808 5806 5804 5802 5799 5796
5822 5821 5821 5820 5820 5818 5818 5817 5816 5815 5814 5812 5811 5811 5809 5808 5806 5805 5804 5803 5802 5802 5802 5802 5803 5804 5804 5805 5806 5807 5808 5809 5809 5809 5809 5809 5808 5807 5805 5804 5802 5800 5797 5795
5818 5817 5816 5816 5815 5814 5814 5813 5811 5810 5809 5808 5806 5806 5804 5803 5801 5800 5799 5798 5797 5797 5797 5797 5797 5798 5799 5800 5801 5802 5803 5804 5804 5805 5805 5804 5804 5803 5802 5801 5799 5797 5795 5793
5814 5813 5811 5811 5811 5809 5812 5808 5806 5804 5804 5802 5800 5799 5798 5797 5796 5794 5793 5793 5792 5792 5791 5791 5791 5792 5793 5794 5795 5796 5797 5798 5799 5799 5800 5800 5799 5799 5798 5797 5796 5794 5792 5790
5809 5808 5806 5805 5804 5803 5804 5802 5800 5798 5796 5795 5793 5793 5792 5791 5789 5788 5787 5787 5786 5786 5786 5785 5786 5786 5786 5787 5788 5789 5791 5792 5793 5794 5794 5794 5794 5794 5794 5793 5792 5790 5789 5787
5804 5802 5801 5799 5797 5796 5797 5795 5793 5792 5789 5787 5786 5785 5785 5784 5784 5782 5781 5781 5780 5780 5779 5779 5779 5779 5780 5780 5781 5782 5784 5785 5786 5787 5788 5788 5789 5789 5789 5788 5787 5786 5785 5784
5797 5796 5794 5792 5790 5789 5787 5786 5785 5784 5781 5779 5778 5777 5776 5776 5776 5776 5775 5774 5774 5773 5773 5772 5772 5772 5773 5773 5774 5775 5776 5778 5779 5780 5781 5782 5782 5783 5783 5783 5782 5781 5781 5779
5791 5789 5787 5784 5782 5782 5778 5777 5776 5774 5770 5769 5768 5768 5767 5767 5767 5766 5766 5766 5766 5765 5765 5765 5765 5765 5765 5765 5766 5767 5768 5770 5771 5772 5773 5774 5775 5776 5776 5776 5776 5776 5775 5774
5782 5781 5777 5776 5775 5772 5768 5766 5764 5762 5761 5759 5758 5757 5757 5757 5757 5757 5756 5756 5756 5756 5756 5756 5756 5757 5757 5757 5758 5759 5760 5761 5762 5764 5765 5766 5767 5768 5769 5769 5769 5769 5769 5768
5773 5769 5766 5764 5763 5760 5757 5754 5751 5751 5749 5747 5746 5746 5745 5745 5745 5745 5745 5745 5745 5745 5745 5746 5746 5747 5748 5748 5749 5749 5750 5751 5753 5755 5756 5758 5759 5760 5761 5762 5762 5762 5762 5762
5761 5757 5753 5751 5750 5747 5745 5741 5738 5737 5736 5734 5733 5732 5732 5732 5732 5732 5732 5733 5733 5733 5734 5734 5735 5736 5737 5737 5738 5739 5740 5742 5743 5745 5747 5748 5750 5751 5752 5753 5754 5755 5755 5754
5747 5743 5739 5737 5735 5732 5730 5727 5725 5723 5721 5720 5719 5718 5717 5716 5716 5717 5717 5718 5719 5720 5720 5721 5722 5723 5724 5726 5727 5728 5729 5731 5733 5734 5737 5739 5740 5742 5743 5744 5745 5746 5746 5746
Wind_Speed
21 20 19 17 15 14 12 12 11 11 12 12 12 12 12 12 11 11 12 11 11 11 10 8 8 8 7 8 8 9 10 12 14 15 17 19 20 21 21 21 20 20 20 20
19 18 17 16 16 15 13 13 13 12 12 11 10 11 12 12 12 11 12 12 12 12 11 9 9 8 8 8 8 9 10 12 14 15 17 19 20 21 21 20 20 20 20 20
17 16 17 16 15 14 13 12 12 11 10 9 9 9 10 11 11 12 12 12 12 12 11 10 9 9 8 8 9 9 10 12 14 15 17 18 20 20 20 20 19 19 19 19
17 16 15 15 14 12 12 11 10 9 9 8 8 8 9 12 12 12 12 12 12 12 12 11 10 10 9 9 9 9 11 12 14 15 17 18 19 19 20 19 19 19 19 18
16 15 14 13 13 13 12 9 8 8 8 8 8 9 10 14 13 13 12 12 11 11 12 12 11 10 10 9 9 10 11 12 14 15 16 17 18 19 19 19 18 18 18 18
12 13 12 12 12 11 9 7 7 6 7 7 8 11 11 14 15 14 13 12 11 11 12 12 12 11 11 10 10 10 11 12 14 15 16 17 18 18 18 18 18 18 18 18
8 9 10 9 9 8 7 7 5 5 5 7 9 14 14 16 16 15 14 13 12 12 12 12 12 12 11 11 10 10 11 12 13 14 15 16 17 18 18 18 18 18 18 18
3 5 7 7 7 7 8 7 7 7 6 7 10 14 17 18 17 16 15 14 13 13 12 13 13 13 12 12 11 11 11 12 13 14 14 15 16 17 17 17 18 17 17 17
3 6 6 7 7 8 8 8 9 11 10 9 8 12 19 20 18 16 15 15 15 14 14 13 13 13 13 12 12 12 11 11 12 13 14 15 15 16 17 17 18 18 17 17
7 6 7 7 7 8 10 10 11 12 12 11 9 10 16 21 21 18 16 16 16 15 15 15 14 14 14 14 13 12 12 12 12 13 13 14 15 15 16 17 17 17 17 17
5 4 6 7 7 9 10 11 12 14 14 14 15 14 17 21 22 20 18 17 16 16 15 15 16 16 15 15 14 13 12 12 12 12 13 14 14 15 16 17 17 17 17 17
6 5 6 8 9 11 12 14 15 16 16 17 19 17 18 22 22 20 19 19 18 17 17 16 17 17 17 16 15 14 13 13 12 12 13 13 14 14 15 16 17 17 17 16
5 6 6 8 11 13 14 15 16 17 18 18 19 17 17 22 23 23 22 21 20 18 18 17 17 18 18 17 17 16 15 14 13 13 13 13 14 14 15 15 16 17 16 16
6 7 9 11 13 16 17 18 19 19 20 20 19 19 19 22 24 24 23 23 22 20 19 19 19 19 19 19 18 17 16 15 14 13 13 13 13 14 14 15 15 16 16 16
9 10 11 13 15 18 19 20 20 21 21 22 21 21 21 23 23 23 23 22 22 21 20 20 20 20 20 20 20 19 18 17 16 15 14 14 14 14 14 15 15 16 16 15
11 12 14 14 16 18 19 19 20 21 22 22 23 22 22 23 23 23 23 23 22 21 21 21 21 21 21 21 21 20 19 18 17 16 16 15 15 14 14 15 15 15 15 15
15 16 17 17 18 19 18 19 21 22 23 24 24 24 23 23 23 23 23 23 23 22 22 22 22 22 22 22 22 22 21 20 19 18 17 16 16 15 15 15 15 15 15 15
18 19 21 21 21 22 19 21 23 25 25 25 26 25 25 24 24 24 24 23 23 22 22 22 23 23 23 24 24 24 23 22 21 20 19 18 17 16 16 16 16 15 15 15
20 22 23 24 25 24 23 24 25 26 27 27 27 26 26 25 25 26 25 24 23 23 23 23 24 24 25 25 25 25 25 24 23 22 21 20 19 18 17 17 16 16 16 15
25 25 27 27 28 29 28 27 27 28 30 30 29 28 27 27 27 28 27 27 26 25 25 24 25 26 27 27 27 27 26 26 24 24 23 22 21 20 19 18 18 17 17 16
30 30 30 31 31 32 33 32 32 32 34 34 33 32 32 30 30 30 30 29 28 28 27 27 27 27 28 29 29 29 28 28 27 26 25 24 22 22 21 20 19 19 18 18
32 34 34 35 36 36 37 37 36 38 39 39 38 37 36 35 34 33 32 32 31 31 30 29 29 29 30 31 31 30 30 30 30 29 27 26 25 24 23 22 21 21 20 19
36 37 39 39 40 40 41 42 43 43 43 43 43 42 41 40 38 37 36 35 34 34 33 33 32 31 31 32 32 32 32 32 32 31 30 29 27 26 25 24 24 23 22 21
40 42 43 43 42 43 44 46 47 46 47 47 46 45 45 44 42 40 39 39 38 37 37 36 35 34 33 33 33 33 33 34 33 33 32 31 30 28 28 27 26 25 24 24
44 45 46 46 46 46 47 49 50 50 49 49 49 49 48 47 46 44 43 42 41 40 40 40 39 38 37 36 36 35 35 35 35 34 34 33 32 31 30 29 28 27 26 26
46 48 49 49 49 50 51 52 52 53 53 53 52 52 51 51 50 48 47 46 45 44 43 43 42 41 40 40 39 38 38 37 37 37 36 35 34 33 32 31 30 29 29 28
Wind_Direction
190 193 198 204 207 209 217 227 241 254 264 271 275 280 288 294 293 292 291 290 289 288 285 276 276 280 288 299 309 318 326 332 337 341 344 345 346 348 348 348 348 348 348 348
180 184 189 198 205 211 219 227 240 252 262 272 277 283 289 295 299 295 293 290 288 285 279 270 272 275 283 293 303 314 322 328 334 339 342 344 346 348 348 349 349 350 350 350
168 176 186 195 203 212 215 229 236 249 259 271 279 286 293 297 300 301 296 292 287 282 274 266 269 271 278 287 299 309 319 326 332 337 340 343 346 347 348 349 350 351 352 352
164 177 184 193 199 211 218 229 244 261 273 287 300 309 311 301 299 297 292 288 282 279 273 268 266 267 272 283 294 305 315 323 330 335 339 342 345 347 349 350 351 352 354 355
165 176 185 193 202 214 223 233 252 268 284 293 305 313 310 301 301 298 294 286 279 276 271 267 264 264 269 279 290 301 311 321 328 333 337 341 344 346 348 350 351 352 354 356
167 177 188 200 210 219 227 238 255 281 299 312 312 311 306 293 300 302 299 289 279 273 269 265 262 262 267 276 286 297 308 318 326 332 336 340 343 345 347 349 351 352 354 356
160 182 197 210 220 222 229 241 263 288 309 315 311 308 297 291 300 299 296 290 282 274 268 264 261 262 265 273 283 293 304 315 323 329 335 339 342 345 347 349 350 352 353 355
163 208 213 223 235 237 235 243 259 271 283 306 313 308 301 303 299 296 292 289 284 278 272 264 260 260 263 270 279 289 299 310 319 327 332 337 341 345 347 350 352 352 354 355
185 255 242 242 247 249 251 252 258 271 280 290 297 295 300 299 298 296 291 287 283 278 273 267 261 260 262 267 275 284 293 304 314 323 330 334 339 343 346 349 351 353 354 355
181 246 260 256 259 265 266 268 267 272 278 281 279 283 287 291 300 302 293 287 282 277 272 267 262 259 260 264 270 279 287 298 309 319 326 331 335 340 344 347 349 352 354 355
203 235 271 273 274 279 278 277 278 281 284 285 284 282 286 292 296 296 291 288 284 278 271 266 262 259 260 263 267 274 282 291 301 312 321 326 331 336 341 344 347 350 353 355
225 236 267 286 289 290 288 285 283 281 281 281 285 295 294 294 295 291 287 285 283 280 273 266 261 258 260 261 265 270 277 284 294 305 314 320 326 331 336 342 345 347 349 352
254 251 261 273 285 290 288 286 285 285 285 285 286 291 288 289 290 289 288 287 284 280 273 267 261 257 258 259 262 267 272 278 286 297 306 313 320 326 331 337 342 345 347 350
276 266 263 269 276 284 289 291 292 290 289 288 288 286 282 281 284 286 287 287 285 280 272 266 262 258 257 258 260 264 268 272 279 288 297 305 312 319 325 330 335 340 343 345
287 279 276 274 276 279 283 287 290 290 291 289 290 288 287 286 287 285 284 284 283 279 273 267 262 258 256 257 258 261 264 267 272 280 289 297 304 311 318 324 329 334 337 340
297 290 287 286 285 286 289 290 290 290 290 290 290 290 289 288 287 284 283 283 282 278 273 268 263 259 257 256 257 258 260 262 267 274 281 288 296 301 308 316 323 328 332 334
302 297 294 293 291 290 295 297 295 294 293 292 290 290 290 290 289 285 283 282 280 277 273 268 264 261 258 256 255 257 257 259 263 268 275 281 288 293 299 307 313 319 324 329
302 299 297 296 294 292 297 293 292 293 292 291 290 289 289 289 288 285 284 283 281 277 272 267 263 260 259 256 254 255 256 257 260 264 269 274 280 285 291 298 304 310 315 320
301 299 297 297 296 295 294 294 292 291 291 291 290 290 288 286 284 282 283 283 280 277 273 270 265 261 259 258 256 255 255 255 257 261 265 269 273 278 284 290 296 301 306 311
300 298 296 296 295 295 295 293 290 289 287 288 288 288 286 284 281 282 283 282 281 279 275 270 266 263 260 259 257 256 255 255 256 258 261 264 268 273 277 282 287 293 298 303
297 296 295 293 292 292 292 292 291 288 286 288 287 286 285 283 281 280 279 279 277 276 274 271 267 265 262 260 259 257 255 254 254 256 258 261 264 268 272 276 280 285 290 295
293 292 292 290 289 287 290 289 286 285 286 286 286 285 284 283 281 279 277 275 273 272 271 269 267 265 263 262 260 258 256 255 254 254 256 259 261 264 267 271 275 279 284 287
290 289 287 286 285 286 285 284 283 283 284 285 285 284 282 281 280 278 276 274 271 270 268 267 266 264 263 262 260 258 256 255 254 254 255 257 259 262 264 267 271 275 279 283
289 288 287 286 285 284 282 281 281 281 281 282 282 281 280 279 279 277 274 272 270 268 267 265 264 262 261 260 259 257 256 255 254 254 254 256 258 260 262 264 267 271 275 279
290 288 286 285 284 282 281 280 280 281 280 279 279 278 278 277 276 275 273 271 269 267 266 264 263 261 259 258 258 257 256 255 254 253 254 255 256 258 260 263 265 268 271 275
289 287 286 285 284 283 282 282 282 281 280 279 278 277 276 275 274 274 272 270 268 266 264 263 262 260 258 257 256 256 255 254 253 253 253 254 255 257 259 261 263 265 268 271